Theta_e
317 318 318 318 318 318 318 318 318 318 318 318 319 319 319 319 319 320 321 321 321 321 321 321 321 322 323 323 323 323 322 322 321 321 321 320 321 321 320 320 320 320 320 321 321 321 323 326 327 324 328 333 333 334 336 339 340 338 338 337 333 335 337 339 342 343 343 344 347 349 349 349 347 348 349 349 349 348 350 350 349 349 348 348 345 345 346 346
314 314 316 317 317 317 318 318 318 318 318 318 318 319 319 319 319 320 320 321 321 321 321 321 321 322 322 323 323 323 323 322 322 321 321 321 322 321 321 320 319 320 319 320 320 321 322 324 326 323 326 332 332 334 337 339 339 337 337 337 335 336 337 339 342 343 343 345 348 350 349 349 348 349 349 348 348 348 350 351 351 351 350 348 343 343 345 347
311 312 313 313 314 315 316 317 317 318 319 319 319 319 319 319 319 320 320 321 321 321 321 321 321 322 322 322 322 323 323 322 322 320 320 322 323 322 322 320 319 319 318 319 320 321 322 321 323 322 326 331 333 335 336 338 338 337 337 338 338 337 336 337 341 342 343 347 349 349 349 349 349 349 349 348 348 348 348 350 351 351 351 350 346 345 346 348
310 311 311 311 312 312 314 315 315 317 318 319 319 319 319 319 319 320 320 320 321 321 321 321 321 321 321 322 322 323 322 322 321 320 321 323 322 322 323 322 321 320 319 319 320 321 322 321 323 326 328 330 332 333 334 336 337 336 337 340 339 336 336 337 340 341 343 348 349 349 348 348 349 348 348 348 346 346 349 351 350 351 352 351 348 348 348 349
309 310 310 310 311 311 312 312 314 315 316 318 319 319 319 320 319 320 320 320 321 321 321 321 321 321 321 321 322 322 322 321 320 321 322 323 322 322 323 324 323 322 321 320 320 321 323 323 324 326 327 329 331 332 333 335 335 335 337 339 337 336 337 337 338 340 344 348 348 348 347 347 349 348 348 347 345 345 348 350 348 348 350 348 348 349 349 350
309 309 309 309 310 310 310 311 312 312 314 316 317 318 319 320 320 320 320 321 321 321 321 320 321 321 321 321 321 322 321 321 321 321 322 321 320 321 322 323 323 323 322 321 320 321 323 324 324 325 326 329 331 332 332 333 334 335 335 335 336 336 337 338 337 340 345 348 348 348 347 348 348 347 347 347 345 346 346 348 345 344 347 346 348 350 351 352
308 308 309 309 309 309 310 310 310 311 312 313 315 316 317 319 320 320 320 321 321 321 321 321 321 321 321 321 321 321 321 322 322 322 322 321 321 322 322 322 323 322 323 322 320 322 324 323 323 324 327 329 330 332 331 331 333 334 333 332 333 335 337 337 337 341 345 347 348 347 347 348 347 346 347 347 346 347 346 345 344 343 345 346 348 351 351 352
308 308 308 308 309 309 310 310 310 310 311 311 312 313 314 317 319 320 321 321 321 321 321 321 321 321 320 320 320 320 320 322 322 321 322 322 323 323 323 323 323 322 322 322 321 322 324 323 322 323 327 328 329 332 330 328 330 331 331 330 331 334 336 337 337 343 346 346 347 346 347 348 347 347 346 347 347 348 348 346 345 344 345 346 347 350 352 352
307 308 308 308 309 309 309 309 310 310 311 311 311 311 312 314 316 318 320 321 321 321 321 321 321 321 320 319 318 319 321 322 322 321 321 322 322 322 323 324 322 320 322 322 321 321 323 323 322 323 327 329 330 332 328 328 329 328 329 330 331 334 336 337 340 344 345 346 346 345 347 347 346 346 346 347 348 349 349 347 346 346 347 348 348 348 349 350
308 308 308 308 309 309 309 309 309 310 310 311 311 311 311 312 313 315 317 319 320 321 321 321 321 320 319 318 319 320 321 321 322 322 323 323 323 322 323 323 321 321 323 322 321 321 323 323 323 324 328 330 331 330 327 328 328 327 331 334 334 335 337 338 341 344 345 345 346 345 345 346 347 346 345 348 349 349 350 350 348 348 349 350 350 349 347 346
307 308 308 309 309 309 309 310 309 310 310 311 311 311 312 312 312 313 314 316 318 320 321 321 320 320 319 319 319 320 320 321 322 323 324 324 324 323 323 323 320 321 323 322 322 322 323 323 324 326 328 330 329 328 327 327 328 331 336 336 335 336 338 339 341 343 344 345 346 346 344 346 346 345 345 349 350 350 351 352 351 351 352 352 351 350 347 345
307 307 307 308 309 309 310 310 310 310 311 311 311 311 312 312 312 312 313 313 316 319 320 320 320 320 320 319 319 320 320 321 323 324 325 325 326 323 324 324 320 321 323 320 321 322 322 323 326 327 328 329 329 327 327 329 334 337 338 338 336 337 338 339 341 343 344 344 345 346 343 345 346 344 348 350 350 352 352 353 353 352 353 353 353 351 349 347
307 307 307 307 308 309 309 310 310 311 311 312 312 312 312 312 312 312 312 313 315 317 319 320 321 323 322 320 320 320 321 323 323 324 326 326 325 323 324 325 321 319 321 321 321 322 323 326 329 327 327 328 327 326 330 335 338 339 339 339 338 337 338 339 341 342 343 343 345 344 338 341 346 345 350 351 350 352 352 353 353 353 353 353 353 351 349 346
307 307 307 307 307 308 308 309 309 310 311 312 312 312 312 312 312 312 312 313 314 317 320 321 323 324 323 322 321 321 323 324 325 326 326 325 323 323 325 326 323 320 321 322 322 322 324 327 327 324 325 327 326 327 334 338 339 340 339 339 339 334 335 341 341 341 343 342 346 343 335 339 345 346 350 351 351 352 352 353 353 353 354 353 354 352 351 349
307 307 307 307 308 308 308 309 309 310 310 312 312 312 312 312 312 312 312 314 316 320 322 322 322 324 323 324 322 324 325 324 326 327 326 325 324 324 325 326 325 323 322 322 322 322 321 322 323 323 324 325 325 331 337 337 339 340 335 335 338 334 335 342 342 342 343 342 345 342 336 340 344 346 351 351 351 352 352 353 353 353 353 353 354 353 353 352
306 307 307 308 308 308 308 308 308 309 310 311 312 313 312 312 312 312 314 316 318 321 322 322 323 324 324 325 324 325 325 325 326 326 325 325 326 325 326 326 326 324 323 323 322 322 321 321 322 322 325 325 325 333 338 336 337 339 335 332 335 335 336 340 341 343 343 342 344 341 339 341 342 347 351 351 351 352 352 353 352 353 353 353 353 353 354 353
305 306 307 307 307 308 308 309 309 309 310 310 312 313 313 312 312 313 316 318 320 322 322 322 324 324 324 323 323 324 325 325 326 326 325 326 326 326 326 326 325 324 324 323 322 321 321 322 322 322 324 324 326 335 334 330 331 334 335 335 335 336 336 337 340 342 343 343 344 342 341 342 342 347 351 351 352 351 352 353 352 353 352 353 353 353 353 352
305 305 306 306 307 308 308 309 309 309 310 310 311 313 312 313 313 315 318 321 322 323 322 322 323 322 322 321 323 324 325 326 325 325 325 326 327 327 327 326 325 324 323 322 322 321 322 322 322 323 324 323 327 334 330 328 332 332 332 333 334 336 338 338 340 342 342 343 344 343 343 342 343 347 351 351 351 351 352 352 352 353 352 352 353 353 353 351
304 304 305 306 306 307 307 308 308 309 310 310 311 312 312 313 314 318 322 323 323 323 323 324 324 322 321 322 323 324 323 323 324 325 325 326 328 327 326 325 325 324 322 321 321 322 322 323 322 321 323 323 326 331 330 332 337 336 335 335 334 334 337 340 341 341 343 343 344 344 343 344 345 346 350 351 351 351 351 352 352 352 352 352 352 352 352 351
303 304 304 305 306 306 307 307 308 308 309 310 311 312 314 314 315 318 319 319 319 320 320 321 321 321 321 321 321 321 321 321 322 324 325 326 328 326 325 325 323 322 320 320 321 322 322 322 322 321 323 324 325 327 329 332 337 338 336 336 336 335 335 341 340 339 343 343 343 345 343 343 345 346 349 351 351 351 351 352 352 352 352 352 352 352 351 349
303 304 304 305 305 306 306 307 307 307 308 310 310 312 314 313 314 314 313 314 316 317 317 318 318 318 319 319 319 320 320 321 321 323 325 326 326 326 325 323 322 322 319 320 321 321 322 321 321 323 323 325 324 325 327 328 334 339 336 333 335 335 335 340 340 337 341 343 342 344 343 342 345 346 349 351 350 351 352 352 352 352 352 352 352 352 351 348
302 303 303 304 305 305 306 306 307 307 309 309 308 312 314 312 310 309 309 312 314 316 317 318 318 317 319 319 319 319 319 321 322 322 324 324 325 326 325 322 323 324 320 319 321 321 321 321 322 323 322 323 324 324 325 327 332 337 337 333 331 333 334 335 337 338 340 342 343 343 342 342 343 344 348 351 350 350 352 351 351 352 352 352 352 351 351 350
302 303 303 304 304 305 306 306 307 308 309 308 308 311 313 310 308 307 308 310 313 316 318 318 318 318 320 320 320 319 319 321 322 321 323 323 324 325 324 323 323 323 319 319 321 320 319 320 322 322 320 323 323 323 325 327 329 333 335 332 329 331 333 330 333 338 340 340 341 342 342 342 342 343 346 349 350 351 351 350 351 351 351 351 351 351 350 350
302 303 303 303 304 305 305 306 308 308 307 307 309 312 312 310 308 307 309 313 314 316 318 319 320 319 321 321 321 320 320 321 322 322 323 324 326 325 324 324 322 321 320 320 321 320 320 321 322 320 319 323 324 323 325 325 325 328 331 333 330 331 332 332 334 338 339 338 340 340 337 338 342 343 345 347 349 349 350 349 349 349 350 350 350 349 348 347
302 302 303 303 303 304 305 306 308 307 306 308 310 312 311 309 309 308 312 317 317 318 320 321 321 321 322 322 321 321 321 322 322 321 323 324 326 325 324 322 323 323 320 319 319 320 321 320 320 320 320 323 323 324 326 325 323 323 327 331 331 332 332 335 337 336 334 333 338 339 332 333 341 344 344 346 347 347 348 349 349 348 348 349 349 349 349 346
302 303 303 303 303 304 305 306 307 306 306 309 312 313 310 309 309 310 315 320 320 321 322 321 322 322 322 322 322 322 321 322 322 321 322 324 325 325 324 321 323 323 319 318 319 320 321 319 320 321 321 322 324 324 325 326 323 320 324 328 330 333 333 334 337 333 330 331 337 339 332 330 336 341 344 346 346 347 347 347 348 348 348 347 348 348 348 347
302 302 303 303 303 304 304 305 306 306 306 309 310 310 308 308 309 312 317 319 318 321 323 321 322 322 322 323 323 322 320 320 323 322 322 323 324 326 326 323 322 321 318 318 318 318 320 319 319 321 321 322 323 323 324 326 322 321 325 327 329 333 334 336 336 332 332 334 336 339 335 330 330 337 345 345 346 347 347 346 346 347 347 346 347 346 347 347
302 302 302 303 303 303 304 304 305 306 306 307 308 308 307 307 309 314 319 318 318 323 324 322 322 322 322 323 323 322 321 321 323 324 323 323 324 326 326 324 324 322 319 320 318 318 320 320 320 321 321 322 322 324 324 325 323 324 326 326 328 333 335 337 335 332 334 333 331 335 335 331 329 335 344 344 345 347 347 347 346 346 347 346 346 346 346 346
302 302 302 302 303 303 303 304 305 306 306 306 307 308 307 308 311 316 318 317 320 323 323 322 321 321 322 323 323 323 322 323 323 324 324 324 324 325 325 324 324 322 320 321 322 320 320 320 321 321 321 322 322 324 324 324 325 324 324 325 328 333 336 337 335 333 333 330 329 333 333 330 329 333 341 342 343 346 347 347 346 346 346 345 346 345 345 345
302 302 302 302 303 303 303 305 305 306 305 306 306 306 307 312 316 319 318 317 320 321 320 322 321 320 322 324 324 323 323 323 323 324 325 325 325 324 324 323 323 322 320 320 323 322 320 320 321 321 322 323 322 322 323 325 325 323 325 326 327 332 335 336 335 334 331 328 329 331 333 331 326 330 339 342 344 345 346 346 346 346 346 345 345 345 345 345
301 302 302 302 303 303 304 305 306 306 305 306 305 306 310 316 318 319 321 319 318 320 321 321 321 320 321 322 322 323 324 323 324 325 325 326 324 322 322 322 321 322 321 319 321 321 320 321 322 322 322 322 322 322 323 324 323 323 327 327 325 328 330 329 331 331 328 326 328 331 334 332 325 328 339 345 344 345 345 346 346 345 346 346 345 345 345 345
301 302 302 302 302 303 304 305 305 305 306 306 305 307 313 317 316 318 321 319 316 320 322 320 320 320 320 320 320 322 324 323 323 324 325 325 324 323 324 324 322 321 319 318 319 319 320 321 321 321 321 322 322 322 322 323 323 324 326 324 322 323 324 324 325 327 326 325 327 330 332 331 329 332 340 343 342 342 343 345 346 345 346 346 345 345 345 345
302 302 302 302 303 304 304 305 305 305 306 306 305 310 316 316 316 317 318 318 318 319 321 319 320 320 319 319 320 320 322 323 323 323 324 324 325 325 324 323 323 322 320 319 318 316 318 320 320 319 321 323 323 321 320 321 323 324 324 323 321 321 322 323 324 325 325 325 326 330 332 330 329 335 340 341 340 341 342 343 344 345 345 345 345 345 344 345
301 301 302 303 303 304 305 305 306 305 306 306 306 312 316 316 317 318 317 318 319 319 320 319 319 320 319 319 319 319 320 322 322 322 323 324 324 324 323 322 322 323 322 319 317 317 316 318 320 320 321 322 323 323 322 323 323 324 326 325 323 322 321 322 324 322 322 324 326 329 330 327 327 334 341 340 339 340 340 341 342 342 343 343 344 345 344 345
301 302 302 303 304 305 306 307 308 309 308 306 307 312 315 315 317 318 317 318 319 319 319 319 320 319 319 319 320 320 320 321 321 322 323 324 324 325 324 322 321 322 321 318 318 318 316 317 320 320 320 321 322 323 324 325 322 323 326 324 322 324 324 322 323 324 323 324 326 328 329 330 332 336 340 338 338 339 339 340 340 340 341 341 342 344 344 345
302 302 302 304 305 307 308 309 312 314 311 307 307 310 312 314 315 317 320 320 319 320 319 318 319 318 317 319 320 320 320 320 321 321 322 323 323 325 324 323 322 321 322 321 320 319 316 318 321 320 319 321 322 323 324 323 322 322 322 320 322 327 327 324 322 326 325 321 325 328 327 329 332 333 338 339 337 339 341 340 340 340 341 341 342 343 343 344
302 302 302 306 309 309 311 311 313 316 312 306 307 309 310 312 314 317 321 321 318 319 319 317 318 318 317 318 319 320 320 319 320 320 320 320 321 323 323 323 321 321 323 324 321 320 318 318 321 322 320 320 322 323 323 324 324 322 319 321 324 324 327 329 324 323 323 320 323 327 324 325 325 328 338 343 338 339 341 340 340 341 342 341 341 342 342 342
300 300 304 310 312 311 311 312 315 315 310 306 307 311 311 310 313 316 318 318 316 318 318 317 318 319 318 317 318 319 319 318 318 319 319 319 321 322 323 323 321 321 323 324 323 322 320 318 319 322 322 321 321 321 321 323 323 322 322 325 325 320 323 329 325 322 321 320 321 324 324 325 324 326 335 338 339 344 345 344 341 340 341 342 341 341 340 340
300 300 305 312 314 313 312 313 315 312 307 306 307 310 311 311 311 314 315 316 316 316 317 318 318 319 318 318 318 318 319 318 318 319 318 319 321 321 323 323 322 321 322 323 323 322 321 319 318 321 322 321 320 319 318 319 321 322 323 324 324 322 324 325 324 321 320 320 320 322 323 324 327 332 335 335 342 349 349 348 345 341 341 341 341 341 339 339
300 302 305 311 314 312 312 312 311 308 306 308 308 308 311 312 311 312 313 314 315 315 316 317 318 318 318 318 317 318 319 319 318 319 318 319 320 320 322 322 322 322 321 322 323 323 323 321 319 320 320 319 319 319 318 320 321 320 320 321 321 323 324 324 324 322 320 321 321 321 321 322 330 339 340 340 344 347 348 348 348 345 342 340 339 339 338 339
301 303 307 310 309 308 310 311 309 307 307 308 308 306 308 311 311 312 312 313 314 314 315 316 317 318 318 318 318 318 319 319 319 319 318 319 319 320 321 322 323 322 319 321 322 322 324 322 319 319 318 317 320 321 322 322 323 321 321 321 321 323 322 319 321 323 321 322 323 322 319 321 332 341 341 344 344 341 344 346 345 344 341 339 338 337 337 339
302 304 305 308 306 305 310 312 311 310 308 308 309 309 310 312 312 312 311 312 313 313 314 315 316 317 316 317 317 317 318 318 318 318 318 319 319 321 321 321 322 322 321 322 321 322 327 326 322 319 319 321 322 323 322 321 323 323 322 323 323 324 322 317 319 322 321 322 323 322 319 322 339 350 341 341 345 340 340 343 341 341 338 337 337 336 337 338
305 305 303 307 309 309 311 313 313 313 310 310 312 312 313 314 313 313 313 312 313 313 313 314 314 315 315 315 315 316 316 316 316 317 318 319 320 320 321 321 320 321 322 322 321 323 326 327 323 320 323 324 322 323 322 320 322 322 321 325 323 323 323 321 325 328 324 321 321 322 319 320 342 365 350 341 343 339 336 338 339 339 337 334 335 335 335 337
305 306 307 310 312 312 312 313 314 315 313 313 313 313 314 315 314 315 314 314 314 313 313 314 314 314 315 315 315 315 316 315 317 318 318 320 321 320 321 320 319 321 322 323 324 324 323 326 324 319 320 321 320 321 321 320 321 320 322 324 322 325 326 323 331 332 324 322 322 320 318 320 341 366 354 341 339 337 335 336 337 338 336 335 335 334 335 335
306 307 309 312 312 312 314 313 312 313 313 314 315 315 316 316 316 315 314 315 316 315 314 315 315 314 315 316 316 316 317 316 317 319 320 320 321 323 324 322 322 324 323 325 326 323 325 328 325 319 318 319 319 319 320 321 322 321 323 324 322 325 324 323 327 324 321 327 328 320 319 325 343 356 347 341 342 340 340 339 337 336 334 335 336 334 335 336
307 308 310 312 312 313 313 313 312 311 311 313 315 316 316 316 317 317 316 316 316 316 316 315 316 316 316 316 316 316 317 317 317 319 322 322 322 325 326 325 326 326 327 331 330 328 333 333 327 324 322 320 321 325 327 326 322 319 322 322 322 324 323 326 325 320 324 329 326 327 329 327 335 345 344 345 346 344 346 344 340 337 333 335 336 335 335 336
307 308 311 313 312 311 312 312 312 311 311 312 314 316 316 317 317 318 319 318 317 318 318 317 318 319 319 318 318 317 317 318 318 319 321 321 321 322 323 324 326 326 331 337 334 332 333 329 326 329 328 324 326 329 328 326 322 321 322 322 322 323 324 325 322 325 334 327 319 334 347 332 329 342 348 350 350 348 351 348 343 338 335 336 337 335 336 336
308 309 311 311 310 311 311 311 311 310 311 312 313 314 315 316 316 318 319 318 318 319 320 320 319 319 321 320 320 320 320 319 320 320 320 321 321 321 321 323 325 326 330 333 332 332 329 323 323 327 326 325 326 326 326 325 324 323 323 322 323 323 323 324 324 330 339 326 319 339 354 338 332 338 343 348 352 350 349 344 340 337 336 337 337 336 336 337
307 308 309 308 309 310 310 310 311 311 312 312 313 314 315 315 317 318 317 317 318 319 320 321 321 320 321 321 321 322 322 320 320 321 322 322 322 322 322 322 325 328 329 328 329 331 327 326 329 325 322 324 325 324 326 325 323 323 323 323 324 324 323 324 325 329 334 330 328 342 352 344 335 335 340 343 342 342 341 337 336 337 336 337 337 337 337 337
305 306 306 307 307 308 309 311 312 312 311 311 311 314 315 317 317 316 315 316 318 320 320 321 322 321 321 322 322 322 322 322 322 323 325 324 324 325 324 324 326 329 329 329 330 329 325 329 335 327 320 323 324 323 324 323 323 323 322 324 324 323 324 324 325 329 331 332 333 339 343 342 337 338 342 340 336 336 338 339 338 337 337 338 339 338 338 338
301 302 305 306 306 308 310 311 311 310 309 310 311 313 314 315 315 313 314 315 316 319 320 319 318 319 320 322 324 324 323 322 322 323 325 324 324 326 326 327 328 329 331 330 329 330 328 328 330 326 321 321 323 323 323 322 323 321 321 324 323 322 322 322 325 328 329 331 334 332 331 334 337 339 339 337 337 338 341 344 342 338 336 338 339 338 338 338
300 300 303 306 306 307 308 309 309 308 308 310 312 312 311 311 311 312 314 316 316 317 318 316 314 316 319 322 325 323 320 318 319 321 322 322 322 323 324 326 327 328 332 334 332 332 333 329 328 326 322 322 324 324 321 321 320 318 320 324 324 324 324 323 325 328 329 330 332 329 328 333 339 341 338 337 339 341 342 342 340 337 336 337 337 338 338 338
Wind_Speed
14 15 15 16 16 16 17 17 17 17 17 17 17 17 17 17 17 17 18 17 17 17 17 17 18 18 19 20 20 20 21 21 20 20 23 22 18 19 18 16 15 15 14 14 14 15 17 15 12 10 10 12 10 7 10 10 9 7 3 2 2 4 6 8 10 8 5 8 13 15 16 12 12 10 7 10 12 15 11 8 10 4 8 16 16 25 28 25
15 15 15 16 16 16 17 17 17 17 18 18 18 18 18 18 18 17 17 18 17 17 17 18 18 17 18 20 20 21 22 22 23 22 20 16 13 14 15 15 16 16 17 18 18 16 19 19 15 14 14 13 8 7 7 9 11 7 1 2 3 5 6 9 13 11 7 11 15 15 17 14 13 14 12 11 11 13 9 9 10 10 15 16 20 29 27 26
16 16 16 16 16 16 17 17 17 17 18 18 18 19 18 19 19 18 17 18 18 17 17 18 18 18 18 18 20 21 22 24 25 18 10 5 3 5 5 8 15 17 18 19 18 16 16 17 15 16 17 11 8 9 6 7 10 6 3 4 4 6 5 8 15 14 10 15 18 15 16 14 14 16 12 11 13 11 9 11 13 15 19 21 26 29 26 25
16 17 17 17 17 17 17 17 18 18 18 18 19 19 19 20 20 20 18 18 18 18 18 18 18 19 18 18 18 19 22 22 16 6 4 2 4 4 3 4 10 14 17 18 17 16 14 14 15 17 16 9 8 9 5 8 8 4 5 5 2 6 6 10 18 16 13 18 19 17 16 14 15 15 13 14 14 9 12 15 17 20 23 27 31 29 27 25
16 17 18 18 18 18 18 18 18 18 18 18 18 19 20 20 20 21 20 19 18 18 18 17 18 19 18 18 17 18 18 12 2 5 1 6 10 9 7 7 8 10 14 17 18 17 15 16 18 16 12 6 6 6 4 9 8 3 6 6 3 8 7 11 19 17 16 18 18 17 16 15 16 13 15 19 13 6 14 20 20 23 26 31 33 30 27 25
16 16 17 18 18 19 19 19 19 19 19 19 19 19 20 20 21 21 21 21 19 19 18 18 18 18 19 18 18 17 10 6 5 1 11 17 15 12 10 11 10 11 13 16 19 18 18 21 19 14 9 4 6 6 4 9 9 5 5 4 6 11 8 11 19 19 20 20 18 18 15 18 18 11 16 22 9 2 11 22 24 25 28 32 33 29 27 26
17 17 16 17 18 18 19 20 20 20 20 20 20 20 20 20 21 21 22 22 21 21 19 19 19 18 19 18 18 16 11 16 15 11 17 17 13 12 11 11 12 13 15 17 20 20 22 23 18 13 9 4 5 6 3 6 9 7 5 3 6 12 10 16 23 23 25 24 21 18 16 20 18 10 16 19 7 5 9 22 25 25 29 33 32 28 27 27
17 17 17 17 17 18 18 19 20 20 20 20 20 20 21 21 21 21 22 22 22 22 21 20 20 19 19 18 17 14 16 21 16 11 12 11 10 11 9 10 12 14 17 19 23 23 24 22 19 14 8 4 6 7 3 4 7 7 7 2 4 9 12 19 24 25 24 20 19 18 16 18 14 10 16 15 6 2 12 23 25 26 31 34 32 30 27 26
17 17 18 18 18 18 18 18 19 20 20 20 20 20 21 22 21 22 22 22 22 22 22 21 21 20 19 18 14 11 17 17 11 7 8 11 12 12 9 9 11 13 16 19 22 24 22 20 20 15 7 5 8 8 5 4 5 6 6 3 4 8 13 20 22 22 20 17 20 18 12 12 11 10 12 10 5 7 18 24 26 29 33 34 32 31 28 26
17 17 18 18 18 18 18 18 19 19 20 20 20 20 21 22 22 22 22 22 22 22 22 21 21 20 19 17 10 7 13 11 9 11 13 15 14 12 10 9 9 11 17 20 22 23 20 16 18 15 7 7 8 5 5 4 2 2 4 1 4 8 13 19 21 20 18 17 21 18 10 11 11 9 7 9 9 13 21 24 27 30 32 32 31 31 30 28
18 18 19 19 19 19 19 19 19 19 19 19 19 20 21 22 22 22 22 21 21 21 21 22 21 20 19 17 11 12 13 12 14 17 17 15 13 12 10 9 7 10 19 22 23 22 18 13 16 13 5 7 8 5 4 4 2 4 9 7 5 9 11 15 19 20 16 12 17 16 11 9 10 7 6 13 15 17 24 24 27 30 29 29 29 30 29 28
20 20 20 20 19 19 19 20 20 20 20 19 19 19 20 21 22 22 22 21 20 19 19 21 20 20 18 17 21 20 15 15 19 20 18 15 13 10 7 7 6 8 17 21 21 21 15 12 16 12 5 8 7 3 3 2 3 10 11 8 7 9 9 11 14 20 16 11 17 17 9 6 10 7 7 17 18 18 22 23 25 27 26 26 26 28 27 27
21 21 21 21 21 20 20 20 20 21 20 19 18 19 20 21 21 21 21 20 19 18 18 18 18 18 14 16 24 22 16 18 20 18 16 13 11 8 4 4 3 6 14 15 15 18 16 15 16 9 6 8 4 2 4 5 7 8 7 7 9 7 6 8 9 16 13 11 23 18 4 7 12 8 10 19 21 20 21 21 23 23 23 24 25 27 28 29
21 22 22 22 22 22 21 20 21 21 20 20 19 19 20 21 21 21 20 19 18 15 15 14 14 15 12 16 22 18 15 16 13 10 9 8 8 7 5 4 2 5 11 11 11 15 16 15 13 7 6 7 4 5 7 6 5 6 6 5 6 5 7 7 8 15 10 10 23 17 6 6 10 10 13 20 24 23 22 22 23 22 22 23 23 25 25 28
21 22 22 22 22 23 22 22 22 21 20 20 19 19 20 21 20 20 18 17 15 13 13 12 13 12 11 19 21 12 10 9 3 2 3 2 6 7 7 6 6 6 8 11 11 12 13 14 12 7 6 7 6 6 6 4 3 4 4 4 5 4 7 7 7 14 10 9 18 14 6 3 6 12 17 20 23 24 22 22 23 22 23 23 23 23 22 24
21 22 22 22 22 22 22 22 23 22 20 19 19 19 20 20 19 18 17 14 13 13 12 11 11 9 7 13 11 5 5 4 5 2 6 2 4 7 7 8 9 9 8 9 11 10 11 13 10 6 6 7 6 6 6 4 4 3 3 5 7 5 7 7 8 12 9 11 15 12 6 2 3 13 20 22 24 24 21 20 22 22 23 23 22 23 22 24
21 22 22 22 22 22 22 22 23 23 21 19 20 19 19 20 18 15 14 12 13 12 12 11 10 9 10 11 8 6 5 4 4 3 7 4 5 8 9 10 10 11 10 9 10 10 11 10 7 6 4 3 4 7 7 6 6 4 2 3 5 6 9 8 8 11 11 13 15 13 9 4 2 12 20 22 25 24 21 21 22 21 21 21 22 22 23 26
22 22 23 23 22 21 21 21 22 23 21 19 19 20 19 18 15 14 13 12 11 10 10 10 8 5 8 10 7 7 6 5 6 7 7 5 6 10 10 10 10 11 11 8 10 11 10 6 4 4 4 4 5 8 8 6 9 9 7 5 4 6 10 10 8 11 14 14 15 13 12 9 4 11 18 21 24 23 22 22 22 23 22 21 21 22 23 27
23 23 23 23 22 21 21 21 22 22 21 18 17 19 18 14 12 11 9 9 9 7 6 6 8 5 7 8 8 9 11 13 12 11 8 4 6 11 12 10 9 11 10 6 8 9 8 4 3 5 6 7 8 10 9 8 11 12 9 8 9 8 8 9 6 8 15 13 13 16 15 12 8 11 16 20 23 22 20 21 20 21 22 21 21 22 24 28
23 23 24 24 23 21 20 22 21 20 21 18 16 15 11 9 7 4 7 13 13 14 15 15 16 19 22 23 22 19 18 18 16 12 8 5 5 9 13 12 10 9 7 5 6 7 8 6 6 8 9 10 11 10 7 6 11 10 5 6 10 10 7 9 7 7 14 11 11 13 11 9 8 10 15 19 21 20 19 19 19 20 21 21 23 23 26 32
23 23 24 25 24 21 20 21 20 19 18 14 14 11 5 6 3 4 13 18 16 16 22 23 23 28 31 29 27 23 17 14 15 12 9 6 5 7 11 11 8 6 4 4 4 5 8 8 8 8 9 11 11 9 6 5 10 11 7 5 8 8 5 8 8 8 12 10 9 7 8 9 5 7 13 17 18 20 23 23 21 22 21 22 23 25 29 32
23 23 24 24 24 22 19 20 20 18 12 9 11 6 5 6 6 7 11 13 20 23 22 22 23 29 31 28 28 26 16 10 14 16 14 11 8 7 8 8 6 5 4 4 4 4 7 8 9 8 6 7 5 7 8 7 9 10 8 6 6 6 3 4 7 9 10 9 7 5 8 9 4 6 12 17 19 20 24 24 22 24 23 22 24 26 28 28
23 24 25 24 25 22 18 20 18 12 8 8 10 2 3 6 7 9 8 9 19 23 19 19 21 26 27 23 23 22 18 11 13 16 15 16 14 11 10 7 6 5 5 7 7 7 7 6 8 7 5 8 5 6 8 6 6 7 8 8 6 6 6 5 6 9 10 5 2 4 7 7 3 6 10 17 21 17 18 21 20 21 24 27 29 30 30 30
23 24 25 26 27 22 20 20 13 8 11 12 7 3 2 5 6 10 8 7 11 14 14 13 14 18 18 13 12 16 20 15 13 14 14 17 16 13 11 8 6 5 5 8 7 7 5 1 7 9 7 11 8 8 10 7 5 5 7 10 6 8 10 6 6 8 8 4 2 5 5 7 7 10 10 13 18 16 16 18 19 21 24 26 27 29 32 35
23 24 25 27 27 25 22 15 7 9 14 10 2 6 0 6 8 10 5 4 7 7 7 6 7 9 6 4 5 12 14 13 17 19 16 19 19 12 9 8 6 6 6 7 5 7 5 1 9 12 8 10 9 9 11 9 7 5 7 9 8 12 10 7 11 10 6 5 7 7 6 6 7 12 12 10 13 16 16 18 22 23 24 24 23 25 30 35
23 24 25 27 28 28 22 11 9 14 13 4 4 6 3 8 9 8 1 1 5 4 2 2 5 2 1 5 8 10 7 6 15 20 17 19 20 14 8 6 3 4 7 6 3 4 4 4 8 11 11 11 10 9 10 10 7 5 6 8 7 10 10 12 14 11 5 4 8 12 10 6 4 9 12 11 12 16 16 17 22 24 25 26 26 27 30 34
24 23 25 26 26 28 24 16 15 15 9 3 4 7 8 8 7 4 0 1 3 2 1 3 4 1 1 5 12 12 3 1 6 15 21 20 20 19 12 6 3 3 5 4 3 3 4 7 6 8 11 12 10 9 9 10 8 4 6 11 10 9 13 15 14 10 5 2 5 11 9 6 6 6 8 12 13 13 16 17 20 24 27 29 30 30 33 37
25 23 25 26 24 25 25 21 18 13 7 5 6 8 7 6 4 1 0 2 1 1 1 3 3 1 0 6 17 11 2 0 2 9 22 23 18 16 11 10 9 7 7 6 6 2 4 9 8 8 10 9 8 7 9 12 9 2 4 9 11 11 13 15 13 8 4 3 4 7 6 4 7 3 4 10 12 13 18 20 20 24 29 31 32 33 35 40
25 23 24 26 24 22 23 21 16 12 9 7 6 6 6 5 4 1 1 1 1 1 1 3 2 1 3 7 15 11 5 1 1 2 17 22 18 12 8 12 13 10 10 9 8 3 2 8 11 11 8 8 6 4 10 15 7 3 7 8 6 5 8 9 8 5 4 5 7 8 10 6 7 4 5 6 9 13 17 17 19 25 30 31 32 34 35 38
26 23 23 26 26 23 23 20 14 13 11 8 7 6 5 3 4 3 3 2 2 1 1 1 1 2 4 5 7 9 7 5 2 3 11 15 15 9 6 12 12 8 7 6 9 5 0 3 8 9 7 7 6 3 9 12 8 10 11 9 8 5 4 3 1 2 4 6 7 10 15 10 8 5 6 7 9 13 14 12 15 21 27 30 32 34 35 37
27 24 22 25 25 24 24 20 15 15 12 8 7 5 2 2 3 3 4 1 2 1 1 1 1 2 2 2 2 3 5 5 2 7 9 8 9 6 7 8 6 5 6 6 6 4 3 3 4 5 7 7 6 5 6 5 7 10 7 7 7 4 3 3 2 2 5 6 5 7 13 11 9 6 6 9 12 12 12 12 14 19 26 32 34 36 36 38
28 25 23 22 23 23 22 19 17 16 13 8 5 4 4 3 3 5 3 0 2 1 1 1 1 1 1 1 2 2 3 4 5 8 9 8 8 8 8 8 7 6 6 7 6 3 6 6 2 3 6 9 9 7 5 3 5 7 6 8 7 3 4 4 3 3 5 5 2 3 9 8 8 10 9 9 11 12 13 14 14 17 26 31 35 38 38 40
29 26 24 21 21 22 19 16 16 16 13 7 5 4 4 4 5 6 5 3 2 1 1 0 0 2 3 2 2 2 2 3 6 8 8 8 8 9 8 6 11 10 4 6 8 5 5 4 4 6 4 8 12 9 7 5 6 8 8 9 8 5 6 6 3 1 4 5 1 4 9 5 4 9 12 14 17 17 16 17 15 13 20 29 35 37 36 40
29 27 26 21 19 19 17 15 15 15 12 8 7 4 5 6 3 6 10 8 2 2 0 1 3 5 3 2 2 1 2 1 4 6 7 8 8 9 6 4 10 9 3 6 7 7 8 6 7 9 4 7 13 10 7 7 7 9 7 6 7 6 6 5 4 4 4 3 2 5 6 6 5 3 5 11 15 13 14 18 17 15 18 25 30 30 31 35
29 27 24 20 16 15 15 12 12 13 11 11 7 4 8 7 2 4 7 7 3 3 2 0 4 7 5 2 1 0 2 0 2 3 6 7 8 9 8 7 9 7 5 6 4 4 8 6 4 6 3 8 10 6 6 8 8 6 3 5 7 6 6 3 2 3 3 2 3 5 4 4 3 5 8 8 9 9 11 13 17 20 19 20 23 27 30 33
30 26 21 17 12 11 11 10 11 11 11 13 7 6 8 4 2 3 3 4 4 2 2 2 2 4 5 3 1 1 1 1 2 1 4 5 6 8 9 7 10 12 9 7 3 3 6 5 3 4 3 7 10 8 8 9 6 4 4 7 3 2 5 4 1 2 1 4 4 4 4 3 2 8 10 8 8 11 10 9 14 18 17 20 23 28 32 35
31 29 21 12 9 10 11 12 12 12 14 13 7 7 6 3 3 4 1 2 2 2 2 4 3 4 4 2 2 1 1 1 1 1 2 3 3 6 8 6 10 14 14 10 5 2 4 5 5 8 10 10 10 11 11 10 6 4 7 8 4 2 1 2 3 3 3 7 4 4 7 6 4 4 4 3 7 12 11 10 12 11 14 21 26 30 35 39
33 31 18 7 8 12 10 10 12 14 15 10 8 7 5 5 5 4 2 2 1 2 3 5 3 2 3 2 2 1 2 1 0 2 1 4 3 6 9 7 9 14 16 14 7 3 5 5 4 9 13 9 7 9 10 9 5 0 4 9 6 3 4 2 3 4 5 6 4 5 7 7 6 5 3 5 7 9 9 9 10 10 15 20 24 30 35 39
31 25 11 3 7 14 15 7 11 18 13 7 9 7 4 5 6 6 7 3 1 2 3 4 3 2 2 2 1 1 2 2 1 2 2 4 2 4 6 5 8 14 16 15 8 4 5 6 4 5 6 5 6 8 10 10 5 2 3 8 3 3 5 4 4 4 5 7 4 5 5 4 6 6 6 10 9 8 9 8 8 11 17 21 24 30 36 40
25 16 6 5 9 13 16 7 10 14 7 5 7 5 2 4 7 10 14 10 3 4 3 3 4 3 3 2 3 3 2 3 3 2 2 3 2 3 5 4 6 9 13 15 10 6 5 6 5 2 2 3 6 8 11 13 9 5 7 8 4 2 1 2 3 2 4 6 5 6 6 4 4 5 8 12 11 9 11 10 9 10 16 23 29 33 38 42
20 8 4 7 13 15 12 3 7 6 4 3 3 3 3 4 4 7 13 13 8 6 5 4 5 5 3 3 3 3 2 3 4 3 2 3 4 3 5 7 6 6 7 9 9 7 5 5 6 4 4 7 8 8 10 14 12 10 9 9 9 6 4 5 6 2 2 4 3 5 7 4 4 5 8 10 10 11 12 10 9 11 14 19 25 31 36 40
13 4 7 13 19 16 7 2 4 4 4 3 3 4 5 6 5 5 7 9 9 7 5 5 5 5 4 5 5 3 3 4 5 5 4 6 8 6 4 6 7 8 7 6 9 9 5 3 6 8 7 9 7 5 5 10 12 13 12 11 11 9 8 9 8 4 3 2 1 1 5 4 4 4 7 9 10 11 10 8 8 15 20 18 17 23 30 36
9 11 15 14 11 7 3 4 3 4 5 6 6 7 6 5 4 4 4 5 6 6 5 5 6 7 7 7 7 7 6 6 7 8 7 7 10 11 9 7 6 6 5 5 8 9 4 2 6 7 5 5 4 2 2 2 7 12 13 12 12 12 12 10 5 4 5 5 4 2 5 4 3 2 4 7 9 9 11 12 12 16 22 20 16 19 25 31
13 18 16 7 1 1 3 3 2 3 5 6 8 9 10 8 5 6 6 5 4 4 5 5 6 8 8 7 8 9 8 7 8 10 9 6 6 10 15 13 6 5 6 6 6 9 6 3 5 6 5 5 6 7 5 3 5 8 8 9 12 15 13 5 2 2 5 8 10 7 6 5 3 0 1 5 8 9 13 16 14 16 23 22 18 18 21 26
13 13 9 4 3 3 5 3 2 2 3 4 6 7 9 9 7 10 11 7 6 5 4 5 5 6 7 6 8 9 10 9 7 6 6 6 5 6 9 11 8 6 9 10 8 9 7 5 6 8 9 9 9 9 8 5 4 4 3 5 10 14 13 6 2 5 7 6 9 9 6 4 2 1 3 5 6 8 13 15 14 20 26 24 20 19 19 23
7 5 4 5 4 4 7 3 2 2 4 4 4 4 6 7 7 11 14 11 11 11 7 5 6 6 7 9 9 9 11 11 9 6 5 5 4 2 2 4 5 7 12 13 11 8 3 3 9 11 10 11 9 7 6 6 6 7 8 10 11 13 14 9 5 7 5 4 6 8 6 6 6 5 6 7 7 9 12 11 13 23 31 27 22 20 19 22
3 3 2 4 4 3 3 0 3 4 5 4 3 3 4 7 5 7 12 10 10 12 9 7 9 8 8 10 10 9 11 12 12 11 9 7 5 5 7 9 7 9 12 11 12 9 2 4 12 14 13 14 14 11 10 11 13 14 14 15 14 14 16 14 11 8 6 5 8 6 6 8 9 8 8 9 9 9 8 9 14 24 30 26 21 19 19 22
4 3 3 4 4 3 2 3 7 8 7 4 3 4 6 8 7 5 6 5 5 10 8 6 11 14 12 11 9 8 8 9 11 10 8 8 7 7 10 12 7 6 6 5 8 8 3 6 10 12 15 16 18 16 11 11 14 15 16 18 16 16 17 16 14 10 8 8 11 7 8 10 10 10 10 10 11 11 13 19 22 23 24 22 20 21 22 24
5 6 6 5 4 5 7 9 10 10 7 5 4 5 7 9 8 5 2 3 4 7 9 7 9 10 11 12 8 5 6 7 8 7 6 8 8 6 7 9 6 4 3 2 6 3 3 5 6 9 14 15 17 16 11 12 13 13 15 18 17 19 20 19 18 15 14 13 11 8 11 12 11 10 10 12 14 13 15 19 19 19 21 21 21 23 24 26
4 5 6 7 6 9 10 9 7 6 6 5 5 4 5 6 5 6 5 5 4 3 6 7 4 2 4 7 7 8 9 7 7 5 4 7 7 5 6 6 4 3 1 1 2 1 2 3 3 5 8 11 13 13 11 14 15 15 16 16 15 16 17 17 15 12 12 11 7 5 7 8 8 7 7 9 10 8 9 11 14 19 22 21 22 24 25 28
7 7 7 7 7 7 7 5 4 5 4 4 4 2 3 3 5 9 7 8 9 6 1 1 4 6 4 5 7 9 7 4 6 8 7 7 6 3 3 3 3 2 0 2 2 2 2 1 1 3 4 6 7 10 12 15 15 17 18 16 13 11 11 12 10 9 10 10 8 6 5 5 7 7 7 9 7 6 8 10 13 19 22 22 24 27 28 30
9 7 6 6 5 5 6 5 3 4 3 2 2 4 4 5 7 9 6 5 8 8 3 6 8 6 4 5 4 3 4 8 11 14 13 11 11 10 8 6 5 5 1 2 2 4 1 1 1 1 3 3 1 3 6 9 9 11 14 16 15 12 11 10 9 9 11 11 9 8 7 8 9 6 7 10 9 8 11 15 19 23 24 26 28 29 30 31
Wind_Direction
321 321 322 322 324 324 324 325 324 324 324 322 323 323 324 325 326 326 326 327 328 327 326 325 325 326 327 327 326 324 318 311 304 293 282 278 287 285 272 259 249 246 241 236 230 216 208 201 190 190 188 192 208 219 218 218 202 192 203 217 185 192 189 179 183 175 145 154 160 165 170 157 153 160 135 131 132 143 144 131 149 127 141 159 168 167 162 164
316 316 317 317 318 319 320 320 321 321 320 321 320 320 321 321 322 323 323 324 325 327 326 324 323 324 326 326 327 326 322 317 307 295 287 286 290 286 275 254 236 233 230 230 230 218 208 204 200 198 190 193 206 207 211 202 194 194 187 217 216 198 187 185 182 172 161 158 158 166 169 163 160 156 150 148 144 155 144 131 142 120 138 156 164 167 164 165
314 314 313 313 313 314 314 315 316 317 316 318 317 318 318 318 319 319 320 321 322 325 325 324 322 322 324 325 327 327 327 322 311 299 282 265 298 327 304 242 222 224 227 227 227 217 210 211 207 195 188 195 199 193 199 188 192 202 209 237 229 188 184 191 182 176 169 154 155 165 166 164 159 158 165 161 154 172 169 154 156 145 147 153 160 166 164 165
313 312 311 311 311 310 311 311 311 311 312 313 314 315 315 315 316 315 316 317 318 321 323 324 321 321 324 323 325 327 331 325 310 286 183 178 338 328 304 223 205 219 226 226 224 211 204 204 196 184 184 196 191 189 200 194 192 176 204 242 211 164 182 196 186 175 161 157 159 159 160 164 161 163 169 159 157 191 196 175 168 161 155 155 160 165 165 168
315 313 312 311 310 310 309 309 308 308 308 309 310 311 311 312 311 312 313 312 314 316 318 320 319 321 321 320 321 323 333 329 265 128 90 312 316 298 273 252 222 223 225 222 219 205 190 187 183 180 187 191 176 185 205 200 196 171 219 250 160 166 191 189 179 168 155 153 155 159 164 162 158 169 177 170 170 196 197 185 175 169 163 162 164 164 167 171
319 318 316 314 313 311 310 309 308 307 306 306 307 307 308 307 308 309 309 309 310 310 313 315 315 317 318 318 316 315 325 291 219 167 315 304 302 296 276 260 249 242 232 218 210 196 180 180 182 183 187 182 176 190 196 190 199 217 231 249 190 188 195 173 169 166 156 153 162 170 163 153 158 179 184 182 194 298 198 188 179 176 170 166 165 164 169 175
323 322 320 318 316 314 313 311 309 308 306 305 305 305 305 304 304 304 305 306 305 307 309 310 311 312 314 314 309 308 287 270 273 291 296 291 296 298 277 259 253 245 235 216 201 188 177 181 185 182 177 173 189 200 190 175 194 227 237 244 217 208 199 172 168 168 165 165 169 166 157 161 168 176 179 189 236 317 202 189 181 176 172 168 168 168 173 179
325 325 324 321 319 317 316 314 312 310 308 306 305 304 303 302 301 300 301 301 300 303 304 306 308 307 310 308 306 304 279 277 293 302 288 286 303 310 286 256 250 244 235 220 204 187 178 181 184 179 179 184 188 186 174 182 192 219 234 238 218 212 194 173 167 167 165 161 157 156 162 170 169 158 171 190 244 265 181 182 179 175 173 173 174 175 177 181
326 325 325 323 321 320 319 317 316 313 312 309 307 305 303 300 299 298 298 298 299 299 301 303 303 304 306 302 301 294 280 286 307 309 301 302 306 317 304 271 261 242 224 214 205 192 182 185 187 183 190 183 178 177 173 211 197 200 224 237 211 195 173 166 163 163 159 149 152 158 161 160 154 150 168 192 215 169 167 173 176 174 173 175 179 180 181 183
326 324 324 322 321 321 321 320 319 317 316 314 312 308 304 300 298 297 296 296 297 297 298 299 299 302 299 294 291 274 281 293 308 305 306 302 301 316 309 287 272 227 204 194 192 193 188 190 190 184 189 175 174 174 163 203 240 196 188 169 197 169 158 162 156 156 153 150 162 161 152 150 155 168 181 190 190 167 161 166 172 174 173 176 181 183 186 186
325 324 323 320 321 321 321 321 320 320 319 318 317 311 306 302 298 296 296 296 296 296 296 296 298 297 292 285 259 253 280 293 300 300 299 299 299 308 305 294 279 208 194 186 183 188 185 184 184 178 183 175 172 174 195 245 293 161 138 89 113 135 142 157 150 154 149 148 164 148 129 141 160 201 197 170 175 169 161 162 170 173 174 178 181 185 189 190
325 325 324 321 321 320 320 320 320 320 319 320 318 314 309 304 300 298 298 297 296 297 295 296 298 293 289 274 256 263 285 290 292 292 291 295 292 294 296 295 287 197 190 191 188 184 178 177 180 179 179 171 163 165 219 254 140 151 139 101 115 122 134 156 152 160 154 150 157 135 116 163 191 207 162 160 168 166 162 162 169 173 176 180 183 187 191 193
325 325 324 322 321 320 320 320 320 319 319 320 318 315 310 305 304 302 300 300 299 299 297 298 296 291 282 263 268 282 291 284 285 288 288 286 276 270 259 273 287 184 184 194 193 181 177 176 175 173 166 165 157 132 120 115 134 146 134 122 132 129 155 166 155 161 153 150 158 153 164 203 202 191 148 163 165 162 164 166 172 175 178 183 186 191 195 197
324 323 323 322 322 321 321 321 320 320 321 321 318 315 311 308 308 304 303 301 300 299 295 295 292 289 270 263 284 295 286 281 284 290 287 271 256 239 215 211 180 166 176 186 187 179 181 183 181 179 176 175 143 120 114 113 143 144 130 136 150 158 166 162 162 166 154 155 168 177 229 209 189 178 158 167 167 166 170 171 177 178 179 185 188 193 198 199
323 323 322 321 322 321 322 322 321 321 323 322 317 315 311 310 310 307 305 301 298 292 288 290 286 285 273 277 292 291 272 270 249 24 3 264 234 215 196 190 175 163 171 182 183 183 187 189 194 189 176 182 159 133 129 126 138 147 151 163 183 176 153 152 176 179 165 163 178 190 229 229 183 173 167 172 172 172 175 176 180 181 183 187 189 194 198 200
325 323 321 321 322 321 322 322 321 322 325 324 318 315 313 312 312 307 303 296 290 281 280 285 280 282 280 287 296 272 258 231 163 46 13 2 215 197 182 180 177 173 175 181 179 177 180 178 183 180 166 172 168 150 141 143 156 186 213 176 180 171 153 159 179 192 173 155 183 205 221 249 171 172 170 175 177 176 178 180 183 185 186 189 191 196 199 202
327 325 322 322 322 322 323 322 320 322 326 327 319 315 315 314 311 305 298 287 279 274 278 278 273 280 268 268 273 247 240 197 186 319 343 327 218 189 177 175 173 178 180 178 174 171 172 170 171 177 168 154 160 159 160 173 176 186 223 182 181 168 161 162 168 192 180 161 186 210 225 240 146 169 173 177 181 179 181 182 185 188 189 192 194 197 201 205
329 327 324 323 324 325 324 321 321 322 326 329 321 318 319 315 307 298 288 278 275 273 279 266 250 275 266 255 250 230 234 243 254 286 310 308 210 185 179 178 172 172 170 164 168 171 172 172 183 178 163 164 167 174 183 184 176 181 189 183 183 175 177 175 165 182 182 181 192 197 220 231 168 170 179 181 184 184 186 186 186 189 192 194 195 199 204 208
331 328 325 323 325 328 327 322 322 323 326 328 323 319 319 316 306 293 277 267 264 265 277 238 210 249 273 263 253 246 269 281 280 278 280 278 196 181 178 181 172 164 161 158 169 176 170 157 188 190 181 180 176 186 196 185 180 185 187 185 180 178 185 176 147 163 177 190 200 197 215 219 181 177 184 184 187 190 192 189 189 192 194 195 198 203 206 211
331 328 325 324 325 330 330 323 323 327 328 329 329 326 328 332 319 294 296 286 266 257 264 254 244 259 266 269 272 275 284 282 277 273 262 242 189 171 170 167 158 159 163 167 169 177 181 184 198 195 182 175 177 187 189 180 182 178 181 197 188 181 180 169 140 150 175 196 214 210 228 226 193 185 188 185 187 195 197 193 193 194 194 196 200 204 209 215
333 328 325 324 324 330 331 323 324 330 329 332 340 347 26 28 6 322 320 305 284 270 271 271 265 262 263 266 268 272 283 284 271 255 230 215 180 168 172 160 152 169 169 147 132 157 189 204 201 192 185 177 179 177 150 154 177 181 188 194 196 193 173 165 156 147 169 200 218 214 248 248 216 194 192 186 189 200 200 196 196 195 195 199 201 205 211 216
334 329 326 323 323 330 333 325 325 331 334 341 344 0 86 56 26 341 326 301 294 295 286 281 272 264 266 265 260 260 264 271 262 247 227 216 208 190 174 163 174 176 140 143 141 160 199 215 195 183 185 170 162 168 160 159 175 188 194 186 199 191 124 135 158 146 161 204 216 192 233 246 226 206 202 195 200 206 204 201 199 195 194 199 203 206 210 213
335 331 327 325 324 329 335 327 326 336 342 338 330 319 109 39 19 343 321 277 293 300 288 278 270 267 271 269 261 248 233 229 246 248 231 212 206 197 176 166 186 167 147 181 189 184 198 213 186 165 164 159 142 165 167 158 174 187 189 194 195 163 168 190 171 158 160 185 204 168 225 250 215 214 218 211 212 213 212 210 207 201 199 203 207 209 210 212
337 333 328 327 325 328 337 331 328 346 340 333 316 194 126 9 4 343 319 261 286 295 284 275 264 267 273 272 258 224 214 216 227 235 220 194 181 179 180 167 169 175 175 186 196 205 209 196 158 154 173 177 159 163 172 169 183 191 195 202 183 162 197 204 142 148 151 145 136 147 232 255 210 212 220 213 215 219 218 213 212 213 210 211 211 211 214 216
337 334 330 329 326 327 337 337 333 343 338 334 248 177 141 346 346 343 324 264 284 277 277 271 243 259 264 235 211 200 208 219 225 223 208 192 179 162 165 168 174 194 183 165 181 221 229 151 154 159 180 189 169 169 184 182 179 196 212 209 183 174 189 157 135 146 159 199 193 176 236 254 198 213 218 198 205 217 216 213 216 216 215 216 215 213 215 219
336 335 330 330 327 326 336 342 331 337 345 358 177 192 302 333 338 340 347 283 291 251 250 228 212 241 197 200 182 173 192 226 232 224 206 202 195 176 160 159 185 198 166 149 173 235 222 160 166 169 173 184 185 184 190 187 182 196 200 192 178 170 166 152 156 170 187 209 187 185 222 254 196 212 212 193 202 213 213 216 218 216 215 215 215 216 216 218
333 335 330 328 328 328 333 335 330 336 348 342 240 250 294 324 338 345 143 278 278 226 166 189 199 232 287 206 169 160 181 221 219 214 204 203 194 187 186 166 162 169 133 141 202 216 175 166 179 183 176 182 194 192 186 188 191 187 170 172 166 161 164 163 171 189 192 135 153 185 212 264 256 231 193 192 205 213 216 221 219 216 216 216 216 218 218 219
330 333 328 325 327 326 326 324 328 336 330 310 291 269 284 307 304 289 221 288 270 134 167 191 201 236 191 177 178 184 313 163 176 208 202 199 186 184 196 180 169 163 148 178 208 177 164 186 185 179 184 193 197 181 168 181 197 192 145 164 166 167 170 170 182 197 177 161 186 186 184 239 253 247 139 188 206 215 221 222 219 216 215 215 216 217 219 222
327 330 327 322 321 320 317 316 323 323 311 307 296 272 287 291 253 190 167 258 296 21 188 180 158 136 118 157 193 223 297 241 309 204 191 193 188 185 194 182 170 160 163 194 217 191 169 204 192 180 189 201 198 160 165 183 197 127 122 125 123 143 155 167 192 180 138 209 219 185 177 212 252 223 142 179 211 222 224 221 218 216 214 214 215 216 219 222
324 327 326 320 318 316 312 314 315 307 300 293 286 284 292 261 179 167 193 215 313 316 202 200 146 141 139 148 208 236 249 253 314 126 170 184 188 182 164 170 168 158 164 203 221 214 230 195 184 190 204 194 185 171 180 186 162 129 125 111 95 89 112 115 121 129 152 224 230 193 186 206 253 230 163 184 213 214 216 220 217 214 214 215 216 217 218 219
323 325 324 319 316 313 310 312 308 298 291 285 287 275 229 161 167 212 199 195 313 238 199 247 142 104 145 159 264 220 215 248 204 147 162 176 183 164 135 153 163 161 171 194 208 222 253 205 173 206 208 179 174 185 195 187 151 147 139 130 123 99 115 110 85 166 202 225 238 204 190 203 242 243 188 201 220 215 212 217 210 206 211 213 215 217 217 219
323 323 321 316 310 305 304 304 296 286 283 282 274 229 182 173 226 223 185 55 287 197 126 178 148 1 291 217 238 199 203 228 191 170 172 178 181 174 172 173 169 175 189 192 186 199 229 219 204 228 200 181 185 186 180 172 178 182 159 155 164 150 165 178 171 191 212 229 274 165 180 199 240 254 247 233 236 231 224 227 218 206 207 210 213 215 214 218
323 323 320 315 308 301 296 292 281 274 275 263 226 196 184 225 221 187 186 211 204 82 57 112 270 291 271 270 262 220 219 200 189 186 176 178 186 185 190 180 173 185 194 182 185 190 207 225 228 224 207 187 194 195 186 175 185 192 170 169 184 170 180 192 168 182 225 231 248 151 183 208 236 253 257 250 249 241 228 235 236 217 209 212 216 215 212 216
324 325 321 316 309 299 290 283 271 266 260 223 191 178 200 228 214 173 200 214 226 348 66 134 319 304 275 277 309 270 231 197 174 185 176 174 189 192 196 189 185 188 152 166 194 196 202 218 203 202 190 174 197 212 193 158 175 196 177 180 194 174 188 196 173 198 211 201 159 154 187 206 186 232 258 247 262 262 236 233 233 228 223 219 218 215 211 213
325 326 322 319 309 293 285 271 252 255 239 191 174 200 208 214 192 175 207 217 240 286 263 64 340 316 302 260 284 29 213 223 95 182 190 177 189 193 187 190 192 186 157 176 192 183 210 233 193 196 196 171 192 209 163 155 182 195 164 197 206 177 175 184 175 195 182 164 170 174 213 222 208 307 295 258 273 271 241 226 220 223 221 210 209 210 210 210
324 327 329 325 308 292 283 254 239 246 212 177 180 221 215 217 185 180 197 196 202 243 279 294 297 279 282 263 212 108 220 262 74 200 210 188 202 195 184 187 187 186 185 186 179 157 206 227 168 180 215 193 191 175 170 193 189 155 182 205 201 148 166 172 145 83 143 222 199 176 231 241 236 284 274 250 256 255 244 222 218 219 203 196 204 207 207 209
329 333 336 333 320 307 281 254 248 235 195 179 206 221 211 231 206 203 211 168 180 137 181 242 226 215 246 238 178 128 323 291 119 270 216 187 219 193 186 193 182 189 194 190 198 193 201 213 175 186 210 211 200 187 194 207 175 150 198 179 104 53 199 178 196 160 184 226 211 173 223 228 209 244 250 225 240 244 238 221 218 210 190 199 209 208 209 212
330 332 333 338 348 348 322 272 240 205 185 188 230 228 212 217 206 212 214 143 134 133 167 213 212 192 230 222 170 162 325 321 90 325 225 193 225 182 181 185 179 193 197 195 209 198 198 224 191 195 210 197 177 194 209 206 182 250 192 158 138 201 193 168 207 187 191 223 218 188 218 231 219 218 236 246 248 250 247 225 206 198 198 206 208 209 213 214
330 331 326 301 331 357 1 328 199 182 180 199 223 224 214 217 223 227 222 208 168 189 202 220 216 218 217 207 203 230 315 313 283 316 242 200 223 181 184 191 188 196 192 189 196 159 179 226 212 192 208 170 156 194 212 203 184 28 158 163 186 226 186 183 195 179 201 221 217 200 209 218 217 214 222 238 247 253 257 245 212 201 204 207 206 207 211 213
334 330 301 289 308 336 358 8 168 175 197 214 213 219 200 221 240 236 229 229 220 205 219 216 209 228 220 220 259 250 265 269 242 265 234 197 234 211 203 204 191 194 190 188 192 169 167 219 222 163 128 175 191 198 211 207 188 179 188 182 190 195 154 202 192 159 212 216 205 218 224 200 194 210 215 228 241 240 244 251 242 223 210 212 214 213 212 213
341 329 268 304 309 314 338 6 168 187 240 234 222 230 226 238 252 245 236 231 226 227 230 213 206 219 227 235 243 219 229 247 223 231 245 222 240 232 208 207 183 155 166 184 199 194 173 197 214 192 172 204 210 196 212 218 198 191 202 193 189 183 162 200 208 178 208 220 196 221 241 218 177 202 213 219 233 236 236 238 247 252 238 226 223 221 218 216
340 303 290 303 296 294 303 257 205 212 235 248 269 254 252 258 252 252 243 223 219 225 222 217 212 210 218 234 239 224 232 252 232 231 246 232 232 240 216 196 168 148 158 188 204 197 170 170 209 215 213 215 210 178 204 226 207 199 207 203 198 195 190 207 215 178 171 217 124 213 251 231 174 196 213 217 229 242 248 244 248 258 257 251 239 227 223 220
316 295 311 311 291 272 246 246 229 207 227 256 281 278 267 263 251 249 237 206 208 212 209 211 209 215 224 225 231 230 226 242 240 228 236 236 233 242 238 201 153 158 189 199 194 182 154 151 201 219 233 231 225 177 130 227 210 207 210 202 200 206 209 215 212 169 187 194 162 199 240 212 168 187 224 241 255 268 269 253 243 254 260 260 253 235 225 222
303 299 308 318 327 174 207 254 248 228 253 265 273 272 263 261 259 249 239 217 204 192 198 210 201 213 225 215 222 227 211 220 234 223 225 232 225 241 246 236 216 197 205 208 184 170 173 188 193 210 227 221 219 212 200 201 205 215 216 201 205 207 204 205 102 151 217 196 184 215 230 194 175 125 221 252 256 262 262 251 243 255 260 257 250 239 228 221
308 303 300 308 314 231 227 292 344 294 310 305 284 272 259 255 245 238 241 244 239 221 209 219 205 208 219 210 220 225 212 219 238 223 215 224 230 253 251 235 222 213 223 231 206 174 180 191 183 201 219 215 212 214 212 200 191 217 217 198 208 202 190 174 140 203 220 187 187 220 228 189 183 226 232 239 239 247 255 252 246 253 257 255 248 238 226 220
310 303 294 315 316 240 237 279 7 354 350 340 304 273 249 249 244 237 236 237 240 237 238 242 225 219 226 223 230 232 223 227 236 234 231 229 228 247 238 221 226 242 254 249 219 186 171 186 188 201 217 219 217 213 193 174 186 210 212 202 205 201 192 187 194 211 201 163 197 218 217 211 205 200 221 230 226 236 248 246 241 246 250 252 247 236 224 220
278 294 317 331 320 275 242 222 41 1 337 323 304 303 277 267 267 239 222 220 227 225 228 237 227 226 224 217 227 236 228 229 231 234 247 250 253 275 285 293 284 264 274 262 212 185 160 205 198 204 214 219 224 218 193 189 203 210 212 210 201 195 195 198 210 205 154 168 217 204 186 214 210 196 211 224 224 233 243 241 238 242 246 247 242 228 218 217
251 293 338 342 307 280 287 325 340 330 311 292 275 288 290 278 284 267 227 235 242 214 209 218 218 224 227 218 221 227 220 226 233 234 238 245 257 276 284 288 270 243 288 274 194 176 205 215 199 206 217 220 225 221 197 195 213 212 210 211 202 195 196 201 213 203 161 198 229 197 178 205 211 206 213 220 220 219 226 233 236 241 245 243 232 216 209 209
272 292 308 324 299 283 294 302 312 308 291 284 264 258 276 276 286 307 284 292 282 212 208 220 214 218 230 228 229 225 209 215 227 224 216 227 238 243 262 274 243 208 292 260 184 174 241 215 182 205 223 228 230 225 198 196 219 221 214 211 203 200 199 200 210 204 190 213 228 194 188 206 212 212 214 222 227 226 230 236 237 238 238 233 219 208 205 207
287 297 307 324 306 286 288 290 297 300 290 283 260 247 275 280 299 342 320 270 264 201 193 216 238 297 264 242 236 230 228 236 246 241 218 222 226 213 230 256 231 200 297 316 180 193 236 223 147 177 223 239 236 230 210 205 218 225 223 217 207 203 203 205 210 202 194 214 227 194 197 219 228 226 230 243 248 242 236 234 229 228 227 221 213 208 207 209
298 291 284 301 300 283 285 291 295 302 294 271 255 277 309 306 338 341 312 245 242 256 224 42 345 342 303 251 236 230 240 284 285 280 273 252 252 247 226 258 278 256 48 53 341 284 220 227 111 151 219 240 228 232 225 212 216 227 229 223 209 200 202 207 207 190 186 203 217 210 209 231 238 228 230 247 252 238 233 231 229 229 225 218 214 212 212 213
321 308 262 266 285 283 290 300 286 274 276 280 323 341 317 311 335 334 310 255 249 257 308 12 354 336 299 266 241 234 309 314 286 275 274 264 265 270 259 260 285 282 216 96 344 319 321 336 23 150 236 241 201 246 229 205 212 231 231 224 214 203 202 210 209 200 198 199 205 211 213 226 231 209 206 227 229 225 234 235 234 232 226 222 222 220 218 216